This is the latest recevied weather packets stored in our database for station/object 9W2TBJ-4. If no packets are shown the sender has not sent any weather packets the latest 10 day(s).
| Time | Temp. | Humidity | Pressure | Rain* | Wind** | Luminosity | Snow |
|---|---|---|---|---|---|---|---|
| 1777145696 | 32.22° C | 63% | 1010 hPa | - | - | - | - |
| 1777144496 | 32.22° C | 62% | 1010.2 hPa | - | - | - | - |
| 1777143296 | 31.67° C | 64% | 1010.3 hPa | - | - | - | - |
| 1777142096 | 32.22° C | 63% | 1010.6 hPa | - | - | - | - |
| 1777140896 | 32.22° C | 62% | 1010.8 hPa | - | - | - | - |
| 1777139696 | 32.22° C | 62% | 1010.7 hPa | - | - | - | - |
| 1777138496 | 32.22° C | 62% | 1010.9 hPa | - | - | - | - |
| 1777137296 | 32.22° C | 64% | 1011.3 hPa | - | - | - | - |
| 1777136096 | 32.22° C | 63% | 1011.4 hPa | - | - | - | - |
| 1777134896 | 32.22° C | 62% | 1011.8 hPa | - | - | - | - |
| 1777133696 | 32.78° C | 61% | 1012.1 hPa | - | - | - | - |
| 1777132495 | 32.22° C | 62% | 1012.2 hPa | - | - | - | - |
| 1777131295 | 32.22° C | 63% | 1012.2 hPa | - | - | - | - |
| 1777130095 | 32.78° C | 60% | 1012.5 hPa | - | - | - | - |
| 1777128895 | 32.78° C | 61% | 1012.6 hPa | - | - | - | - |
| 1777127696 | 32.22° C | 62% | 1012.6 hPa | - | - | - | - |
| 1777126496 | 32.78° C | 61% | 1012.6 hPa | - | - | - | - |
| 1777125296 | 32.78° C | 59% | 1012.6 hPa | - | - | - | - |
| 1777124096 | 33.33° C | 59% | 1012.5 hPa | - | - | - | - |
| 1777122896 | 32.78° C | 60% | 1012.3 hPa | - | - | - | - |
| 1777121696 | 32.78° C | 60% | 1011.6 hPa | - | - | - | - |
| 1777120552 | 32.78° C | 58% | 1011.5 hPa | - | - | - | - |
| 1777120496 | 32.78° C | 58% | 1011.5 hPa | - | - | - | - |
| 1777119296 | 33.33° C | 57% | 1011.1 hPa | - | - | - | - |
| 1777118096 | 33.33° C | 57% | 1010.3 hPa | - | - | - | - |
* Rain since midnight (hover to see other rain measurements)
** Current wind speed in m/s (hover to see current wind gust speed)